Regional Weather Roundup
Issued by NWS Newport/Morehead, NC

Current Version | Previous Version | Graphics & Text | Print | Product List | Glossary Off
Versions: 1 2 3 4 5 6 7 8 9 10 11 12 13 14 15 16 17 18 19 20 21 22 23 24 25 26 27 28 29 30 31 32 33 34 35 36 37 38 39 40 41 42 43 44 45 46 47 48 49 50
000 ASUS42 KMHX 251026 RWRMHX WEATHER ROUNDUP FOR EASTERN NORTH CAROLINA NATIONAL WEATHER SERVICE NEWPORT/MOREHEAD CITY NC 600 AM EDT THU MAY 25 2017 NOTE: "FAIR" INDICATES FEW OR NO CLOUDS BELOW 12,000 FEET WITH NO SIGNIFICANT WEATHER AND/OR OBSTRUCTIONS TO VISIBILITY NCZ015>017-031-032-045>047-102-103-251100- NORTH COAST CITY SKY/WX TMP DP RH WIND PRES REMARKS EDENTON CLOUDY 72 69 89 S12 29.54R ELIZABETH CITY CLOUDY 72 71 97 SW12 29.52R KITTY HAWK CLOUDY 72 72 100 SW7G18 29.55R MANTEO LGT RAIN 72 70 92 SW18G30 29.55R $$ NCZ045>047-081-094-103-104-251100- CENTRAL COAST CITY SKY/WX TMP DP RH WIND PRES REMARKS FRISCO NOT AVBL $$ NCZ095-097-098-100-101-251100- SOUTHERN COAST CITY SKY/WX TMP DP RH WIND PRES REMARKS BEAUFORT CLOUDY 75 72 90 SW18 29.56R CEDAR ISLAND NOT AVBL JACKSONVILLE MOCLDY 70 69 97 SW9 29.55R PINEY ISLAND CLOUDY N/A N/A N/A SW18G26 29.55 WILMINGTON CLOUDY 71 67 87 SW9 29.56R $$ NCZ011>013-027>030-043-044-078>080-089-090>093-098-251100- COASTAL PLAIN CITY SKY/WX TMP DP RH WIND PRES REMARKS AHOSKIE N/A 67 67 98 S5 29.52R CLINTON MOCLDY 68 68 99 CALM 29.54R ELIZABETHTOWN MOCLDY 69 67 94 SW6 29.55R GOLDSBORO PTCLDY 70 70 100 SW6 29.51S GREENVILLE CLOUDY 70 70 100 S7 29.56S HAVELOCK CLOUDY 73 67 81 SW14 29.56R KENANSVILLE PTCLDY 68 68 100 S3 29.54R KINSTON CLOUDY 70 69 96 S8 29.54S NEW BERN CLOUDY 70 69 97 SW13 29.55R RICHLANDS CLOUDY 69 67 93 SW8 29.55S ROCKY MOUNT MOCLDY 64 63 96 VRB3 29.51S WASHINGTON CLOUDY 69 67 95 SW5 29.53R WHITEVILLE PTCLDY 68 66 93 SW8 29.56R $$ AMZ130-135-150-152-154-156-158-170-250-252-270-ANZ085-086-088-633-658-670-251100- MARINE OBSERVATIONS STATION/POSITION TIME TEMP WIND PRES WAVE SWELL AIR SEA DIR/SP/G HT/PER HT/PER (UTC) (F) (DEG/KT/KT) (MB) (FT/S) (FT/S) CHESAPEAKE LIGHT NOT AVBL 64 E VA BEACH 0950 69 65 170/ 14/ 17 1001.2 5/ 8 3/ 8 DUCK 1000 72 65 190/ 16/ 21 999.6 2 E DUCK 1000 65 N/A 5/ 7 OREGON INLET 1000 73 69 180/ 19/ 23 1000.5 13E OREGON INLT 0948 65 N/A 5/ 8 3/ 8 HATTERAS CG 1000 73 74 210/ 11/ 15 1000.7 DIAMOND BUOY 0950 77 78 220/ 25/ 31 1000.9 5/ 6 2/ 8 CAPE LOOKOUT 1000 75 230/ 13/ 18 1000.9 BEAUFORT LAB 1000 74 72 230/ 7/ 12 1000.2 30 SE NEW RVR IN 1008 75 75 240/ 23/ 31 1001.2 30 SE NEW RVR IN 1013 75 N/A 9/ 7 2/11 27 SE WRIGHTSVLE 1008 75 75 220/ 21/ 29 1000.5 5 SE WRIGHTSVLE 1008 74 74 230/ 16/ 25 1001.0 225 S CAPE HAT 0950 76 77 190/ 27/ 31 1007.3 11/ 8 41 SE CHARLESTON 1010 73 76 240/ 23/ 27 1003.0 $$

USA.gov is the U.S. government's official web portal to all federal, state and local government web resources and services.